CZ-6A DEB, 54268

Orbit data source: Space-Track

CZ-6A DEB, 54268 is space debris in SSO originally from a launch on Fri, 11 Nov 2022 UTC launched from the Taiyaun Space Center, China (TSC). Debris objects in space refer to the collection of defunct objects orbiting the Earth. Examples of debris include non-operational satellites, rocket bodies, and fragments generated from explosions, collisions, or faulty payload assembly.

Loading next visibility...
Identifier
54268, 2022-151K
Orbit
SSO
Country
Flag of CNCN / PRC
Related business
Manufacturer
SAST
Mission
Spacecraft
Bus & Motor
Unknown
Mass
Unknown
Launch date (UTC)
2022-11-11 (4 years ago)
Launch vehicle
Unknown
Launch site
Taiyaun Space Center, China (TSC)
Object type
Payload
Rocket body
Debris
Shape & HBR
Unknown shape, 0.3 m
Radar Cross Section
Medium (>0.1 m² and <1 m²)

Expand to show TLE details & history
Last TLE update: 2 days ago

TLE from 2 days ago
0 CZ-6A DEB
1 54268U 22151K   26171.38155860 -.00000061  00000-0 -13945-4 0  9994
2 54268  98.8971 137.6067 0122893  71.9604 289.4903 13.94122530182816
Epoch: 2026-06-20T09:09Z
TLE epoch observation values (Epoch: 2026-06-20T09:09:26.663Z)
Latitude
-0.00002°
Longitude
91.64861°
Altitude
888.171 km
Speed
7.423 km/s
True Right ascension
09h 10m 25s
True Declination
0° 00' 00"
Sunlit
Object was in daylight at epoch
Visualization orbit readout
Latitude
Unknown
Longitude
Unknown
Altitude
Unknown
Speed
Unknown
Apparent Right ascension
Unknown
Apparent Declination
Unknown
Sunlit
N/A
Visualization observer readout
Local Sidereal Time
21:30:27
Azimuth
Unknown
Elevation
Unknown
Doppler factor
Unknown
Orbital elements
Apogee altitude
1,001.004 km
Perigee altitude
821.837 km
Semi-major axis
7,289.558 km
Eccentricity
0.01229
Inclination
98.8971°
RAAN
137.6067°
Arg. of periapsis
71.9604°
True anomaly
288.15603°
Mean anomaly
289.4903°
Eccentric anomaly
288.82384°
Mean motion
3.48732 °/min
Orbital period
103.23 mins
BSTAR
-0.000013945
Loading maneuver chart data...
Computing Atmospheric mass density...
Loading historical data...
Loading historical data...
Loading historical data...
Loading historical data...
Loading historical data...
Loading historical data...
Loading historical data...

Documentation

Showing up to 5 results
|